Year,Month,Day,Hour,Minute,Value (Times are PST for windspeed in km/hr)
2010,04,08,00,00,1.10
2010,04,08,00,01,2.20
2010,04,08,00,02,2.50
2010,04,08,00,03,3.40
2010,04,08,00,04,3.70
2010,04,08,00,05,2.80
2010,04,08,00,06,3.90
2010,04,08,00,07,6.10
2010,04,08,00,08,8.60
2010,04,08,00,09,7.00
2010,04,08,00,10,13.40
2010,04,08,00,11,7.60
2010,04,08,00,12,9.40
2010,04,08,00,13,6.80
2010,04,08,00,14,6.10
2010,04,08,00,15,8.50
2010,04,08,00,16,8.40
2010,04,08,00,17,6.20
2010,04,08,00,18,2.70
2010,04,08,00,19,6.70
2010,04,08,00,20,6.70
2010,04,08,00,21,4.70
2010,04,08,00,22,7.30
2010,04,08,00,23,7.40
2010,04,08,00,24,2.80
2010,04,08,00,25,4.30
2010,04,08,00,26,3.60
2010,04,08,00,27,4.30
2010,04,08,00,28,4.90
2010,04,08,00,29,6.30
2010,04,08,00,30,7.60
2010,04,08,00,31,7.00
2010,04,08,00,32,4.50
2010,04,08,00,33,7.40
2010,04,08,00,34,9.20
2010,04,08,00,35,7.00
2010,04,08,00,36,5.20
2010,04,08,00,37,7.70
2010,04,08,00,38,6.10
2010,04,08,00,39,6.10
2010,04,08,00,40,3.90
2010,04,08,00,41,4.40
2010,04,08,00,42,2.00
2010,04,08,00,43,3.90
2010,04,08,00,44,6.40
2010,04,08,00,45,4.00
2010,04,08,00,46,3.70
2010,04,08,00,47,7.20
2010,04,08,00,48,5.80
2010,04,08,00,49,6.40
2010,04,08,00,50,4.30
2010,04,08,00,51,5.60
2010,04,08,00,52,5.70
2010,04,08,00,53,6.70
2010,04,08,00,54,6.10
2010,04,08,00,55,3.10
2010,04,08,00,56,5.10
2010,04,08,00,57,3.30
2010,04,08,00,58,3.30
2010,04,08,00,59,3.20
2010,04,08,01,00,3.50
2010,04,08,01,01,4.10
2010,04,08,01,02,5.70
2010,04,08,01,03,4.00
2010,04,08,01,04,5.80
2010,04,08,01,05,2.10
2010,04,08,01,06,2.00
2010,04,08,01,07,3.60
2010,04,08,01,08,2.80
2010,04,08,01,09,4.40
2010,04,08,01,10,3.20
2010,04,08,01,11,2.10
2010,04,08,01,12,7.40
2010,04,08,01,13,3.80
2010,04,08,01,14,1.30
2010,04,08,01,15,2.80
2010,04,08,01,16,2.50
2010,04,08,01,17,2.20
2010,04,08,01,18,7.90
2010,04,08,01,19,9.60
2010,04,08,01,20,9.20
2010,04,08,01,21,3.30
2010,04,08,01,22,6.70
2010,04,08,01,23,6.70
2010,04,08,01,24,9.90
2010,04,08,01,25,8.00
2010,04,08,01,26,8.40
2010,04,08,01,27,9.90
2010,04,08,01,28,5.80
2010,04,08,01,29,8.40
2010,04,08,01,30,13.70
2010,04,08,01,31,13.80
2010,04,08,01,32,9.70
2010,04,08,01,33,9.50
2010,04,08,01,34,9.00
2010,04,08,01,35,7.00
2010,04,08,01,36,5.60
2010,04,08,01,37,9.40
2010,04,08,01,38,12.20
2010,04,08,01,39,11.70
2010,04,08,01,40,8.00
2010,04,08,01,41,9.90
2010,04,08,01,42,6.80
2010,04,08,01,43,7.20
2010,04,08,01,44,4.40
2010,04,08,01,45,7.30
2010,04,08,01,46,7.30
2010,04,08,01,47,6.40
2010,04,08,01,48,6.70
2010,04,08,01,49,8.40
2010,04,08,01,50,8.10
2010,04,08,01,51,6.50
2010,04,08,01,52,10.60
2010,04,08,01,53,7.30
2010,04,08,01,54,5.50
2010,04,08,01,55,5.30
2010,04,08,01,56,1.20
2010,04,08,01,57,0.70
2010,04,08,01,58,2.00
2010,04,08,01,59,3.60
2010,04,08,02,00,2.60
2010,04,08,02,01,0.20
2010,04,08,02,02,0.80
2010,04,08,02,03,0.20
2010,04,08,02,04,0.80
2010,04,08,02,05,0.00
2010,04,08,02,06,0.40
2010,04,08,02,07,2.50
2010,04,08,02,08,0.80
2010,04,08,02,09,2.50
2010,04,08,02,10,0.70
2010,04,08,02,11,0.90
2010,04,08,02,12,0.10
2010,04,08,02,13,0.00
2010,04,08,02,14,0.00
2010,04,08,02,15,0.00
2010,04,08,02,16,0.00
2010,04,08,02,17,0.00
2010,04,08,02,18,0.20
2010,04,08,02,19,0.90
2010,04,08,02,20,0.80
2010,04,08,02,21,0.70
2010,04,08,02,22,2.90
2010,04,08,02,23,0.60
2010,04,08,02,24,1.60
2010,04,08,02,25,0.20
2010,04,08,02,26,0.00
2010,04,08,02,27,2.00
2010,04,08,02,28,1.80
2010,04,08,02,29,2.10
2010,04,08,02,30,1.30
2010,04,08,02,31,0.00
2010,04,08,02,32,2.90
2010,04,08,02,33,3.00
2010,04,08,02,34,0.80
2010,04,08,02,35,1.30
2010,04,08,02,36,0.30
2010,04,08,02,37,0.00
2010,04,08,02,38,1.20
2010,04,08,02,39,0.10
2010,04,08,02,40,1.00
2010,04,08,02,41,2.20
2010,04,08,02,42,1.60
2010,04,08,02,43,1.50
2010,04,08,02,44,0.20
2010,04,08,02,45,0.00
2010,04,08,02,46,0.10
2010,04,08,02,47,0.00
2010,04,08,02,48,0.00
2010,04,08,02,49,0.30
2010,04,08,02,50,0.30
2010,04,08,02,51,0.00
2010,04,08,02,52,0.00
2010,04,08,02,53,0.30
2010,04,08,02,54,0.30
2010,04,08,02,55,3.00
2010,04,08,02,56,1.10
2010,04,08,02,57,0.00
2010,04,08,02,58,0.00
2010,04,08,02,59,0.30
2010,04,08,03,00,1.10
2010,04,08,03,01,0.10
2010,04,08,03,02,0.00
2010,04,08,03,03,0.10
2010,04,08,03,04,0.00
2010,04,08,03,05,0.00
2010,04,08,03,06,3.20
2010,04,08,03,07,1.50
2010,04,08,03,08,1.00
2010,04,08,03,09,2.50
2010,04,08,03,10,0.30
2010,04,08,03,11,2.80
2010,04,08,03,12,6.00
2010,04,08,03,13,4.50
2010,04,08,03,14,4.60
2010,04,08,03,15,3.90
2010,04,08,03,16,3.50
2010,04,08,03,17,4.70
2010,04,08,03,18,0.40
2010,04,08,03,19,0.90
2010,04,08,03,20,0.70
2010,04,08,03,21,0.20
2010,04,08,03,22,0.10
2010,04,08,03,23,2.60
2010,04,08,03,24,1.40
2010,04,08,03,25,2.80
2010,04,08,03,26,0.40
2010,04,08,03,27,0.00
2010,04,08,03,28,0.00
2010,04,08,03,29,0.10
2010,04,08,03,30,0.20
2010,04,08,03,31,0.20
2010,04,08,03,32,0.00
2010,04,08,03,33,0.00
2010,04,08,03,34,2.00
2010,04,08,03,35,1.40
2010,04,08,03,36,2.20
2010,04,08,03,37,1.10
2010,04,08,03,38,1.00
2010,04,08,03,39,0.20
2010,04,08,03,40,0.20
2010,04,08,03,41,0.50
2010,04,08,03,42,1.00
2010,04,08,03,43,0.20
2010,04,08,03,44,0.00
2010,04,08,03,45,0.00
2010,04,08,03,46,0.00
2010,04,08,03,47,2.50
2010,04,08,03,48,2.00
2010,04,08,03,49,0.00
2010,04,08,03,50,0.60
2010,04,08,03,51,0.60
2010,04,08,03,52,0.00
2010,04,08,03,53,0.00
2010,04,08,03,54,0.00
2010,04,08,03,55,0.00
2010,04,08,03,56,0.60
2010,04,08,03,57,0.00
2010,04,08,03,58,0.00
2010,04,08,03,59,0.00
2010,04,08,04,00,0.00
2010,04,08,04,01,0.00
2010,04,08,04,02,0.10
2010,04,08,04,03,0.20
2010,04,08,04,04,0.00
2010,04,08,04,05,0.00
2010,04,08,04,06,0.00
2010,04,08,04,07,0.00
2010,04,08,04,08,0.00
2010,04,08,04,09,0.00
2010,04,08,04,10,0.00
2010,04,08,04,11,0.00
2010,04,08,04,12,0.00
2010,04,08,04,13,0.00
2010,04,08,04,14,0.40
2010,04,08,04,15,0.10
2010,04,08,04,16,1.90
2010,04,08,04,17,0.20
2010,04,08,04,18,0.20
2010,04,08,04,19,0.00
2010,04,08,04,20,0.00
2010,04,08,04,21,0.00
2010,04,08,04,22,0.00
2010,04,08,04,23,0.90
2010,04,08,04,24,0.00
2010,04,08,04,25,0.00
2010,04,08,04,26,0.10
2010,04,08,04,27,0.00
2010,04,08,04,28,0.00
2010,04,08,04,29,0.00
2010,04,08,04,30,0.00
2010,04,08,04,31,0.00
2010,04,08,04,32,0.10
2010,04,08,04,33,0.10
2010,04,08,04,34,0.00
2010,04,08,04,35,0.40
2010,04,08,04,36,0.10
2010,04,08,04,37,0.00
2010,04,08,04,38,0.10
2010,04,08,04,39,0.00
2010,04,08,04,40,0.00
2010,04,08,04,41,0.60
2010,04,08,04,42,0.00
2010,04,08,04,43,0.20
2010,04,08,04,44,0.80
2010,04,08,04,45,0.20
2010,04,08,04,46,0.00
2010,04,08,04,47,0.00
2010,04,08,04,48,0.00
2010,04,08,04,49,0.10
2010,04,08,04,50,0.10
2010,04,08,04,51,0.50
2010,04,08,04,52,0.00
2010,04,08,04,53,0.10
2010,04,08,04,54,0.00
2010,04,08,04,55,0.00
2010,04,08,04,56,0.00
2010,04,08,04,57,0.00
2010,04,08,04,58,0.00
2010,04,08,04,59,0.00
2010,04,08,05,00,0.30
2010,04,08,05,01,1.50
2010,04,08,05,02,0.00
2010,04,08,05,03,0.00
2010,04,08,05,04,0.00
2010,04,08,05,05,0.00
2010,04,08,05,06,0.00
2010,04,08,05,07,0.00
2010,04,08,05,08,0.00
2010,04,08,05,09,0.60
2010,04,08,05,10,0.40
2010,04,08,05,11,0.00
2010,04,08,05,12,0.20
2010,04,08,05,13,0.90
2010,04,08,05,14,1.40
2010,04,08,05,15,1.50
2010,04,08,05,16,0.30
2010,04,08,05,17,0.00
2010,04,08,05,18,0.00
2010,04,08,05,19,3.60
2010,04,08,05,20,0.20
2010,04,08,05,21,1.90
2010,04,08,05,22,0.20
2010,04,08,05,23,2.00
2010,04,08,05,24,6.80
2010,04,08,05,25,6.80
2010,04,08,05,26,4.50
2010,04,08,05,27,4.50
2010,04,08,05,28,3.20
2010,04,08,05,29,6.00
2010,04,08,05,30,5.40
2010,04,08,05,31,6.90
2010,04,08,05,32,6.90
2010,04,08,05,33,10.00
2010,04,08,05,34,10.20
2010,04,08,05,35,11.50
2010,04,08,05,36,13.80
2010,04,08,05,37,10.50
2010,04,08,05,38,10.40
2010,04,08,05,39,11.90
2010,04,08,05,40,8.30
2010,04,08,05,41,11.90
2010,04,08,05,42,12.10
2010,04,08,05,43,9.30
2010,04,08,05,44,13.00
2010,04,08,05,45,10.60
2010,04,08,05,46,11.10
2010,04,08,05,47,9.40
2010,04,08,05,48,11.20
2010,04,08,05,49,8.00
2010,04,08,05,50,8.40
2010,04,08,05,51,7.90
2010,04,08,05,52,2.30
2010,04,08,05,53,0.90
2010,04,08,05,54,1.30
2010,04,08,05,55,2.20
2010,04,08,05,56,2.80
2010,04,08,05,57,2.40
2010,04,08,05,58,2.10
2010,04,08,05,59,0.20
2010,04,08,06,00,0.00
2010,04,08,06,01,0.00
2010,04,08,06,02,0.00
2010,04,08,06,03,0.00
2010,04,08,06,04,1.00
2010,04,08,06,05,0.60
2010,04,08,06,06,0.00
2010,04,08,06,07,0.00
2010,04,08,06,08,0.30
2010,04,08,06,09,0.00
2010,04,08,06,10,0.00
2010,04,08,06,11,0.00
2010,04,08,06,12,0.00
2010,04,08,06,13,0.00
2010,04,08,06,14,0.30
2010,04,08,06,15,0.80
2010,04,08,06,16,1.40
2010,04,08,06,17,2.40
2010,04,08,06,18,2.20
2010,04,08,06,19,0.50
2010,04,08,06,20,0.00
2010,04,08,06,21,0.00
2010,04,08,06,22,0.00
2010,04,08,06,23,0.30
2010,04,08,06,24,2.90
2010,04,08,06,25,1.00
2010,04,08,06,26,4.20
2010,04,08,06,27,2.40
2010,04,08,06,28,0.00
2010,04,08,06,29,0.20
2010,04,08,06,30,0.60
2010,04,08,06,31,1.00
2010,04,08,06,32,1.50
2010,04,08,06,33,1.50
2010,04,08,06,34,3.90
2010,04,08,06,35,3.60
2010,04,08,06,36,1.70
2010,04,08,06,37,0.30
2010,04,08,06,38,0.60
2010,04,08,06,39,2.20
2010,04,08,06,40,5.50
2010,04,08,06,41,4.20
2010,04,08,06,42,4.70
2010,04,08,06,43,4.70
2010,04,08,06,44,4.70
2010,04,08,06,45,2.50
2010,04,08,06,46,4.90
2010,04,08,06,47,4.40
2010,04,08,06,48,4.90
2010,04,08,06,49,5.40
2010,04,08,06,50,6.10
2010,04,08,06,51,7.10
2010,04,08,06,52,7.10
2010,04,08,06,53,5.60
2010,04,08,06,54,7.90
2010,04,08,06,55,6.70
2010,04,08,06,56,6.40
2010,04,08,06,57,8.10
2010,04,08,06,58,5.60
2010,04,08,06,59,7.00
2010,04,08,07,00,5.30
2010,04,08,07,01,3.70
2010,04,08,07,02,6.40
2010,04,08,07,03,4.30
2010,04,08,07,04,3.80
2010,04,08,07,05,2.50
2010,04,08,07,06,0.00
2010,04,08,07,07,1.00
2010,04,08,07,08,2.20
2010,04,08,07,09,3.30
2010,04,08,07,10,1.80
2010,04,08,07,11,0.00
2010,04,08,07,12,3.80
2010,04,08,07,13,1.70
2010,04,08,07,14,0.10
2010,04,08,07,15,0.90
2010,04,08,07,16,2.40
2010,04,08,07,17,0.60
2010,04,08,07,18,0.00
2010,04,08,07,19,0.20
2010,04,08,07,20,0.10
2010,04,08,07,21,0.50
2010,04,08,07,22,3.80
2010,04,08,07,23,4.60
2010,04,08,07,24,1.90
2010,04,08,07,25,2.10
2010,04,08,07,26,1.00
2010,04,08,07,27,0.10
2010,04,08,07,28,0.80
2010,04,08,07,29,4.50
2010,04,08,07,30,0.30
2010,04,08,07,31,0.10
2010,04,08,07,32,0.30
2010,04,08,07,33,1.30
2010,04,08,07,34,0.70
2010,04,08,07,35,0.00
2010,04,08,07,36,0.40
2010,04,08,07,37,0.50
2010,04,08,07,38,0.40
2010,04,08,07,39,0.10
2010,04,08,07,40,0.00
2010,04,08,07,41,0.00
2010,04,08,07,42,0.00
2010,04,08,07,43,0.00
2010,04,08,07,44,0.00
2010,04,08,07,45,0.30
2010,04,08,07,46,0.30
2010,04,08,07,47,0.90
2010,04,08,07,48,0.50
2010,04,08,07,49,4.60
2010,04,08,07,50,2.10
2010,04,08,07,51,1.70
2010,04,08,07,52,3.70
2010,04,08,07,53,4.90
2010,04,08,07,54,4.60
2010,04,08,07,55,3.80
2010,04,08,07,56,4.20
2010,04,08,07,57,6.50
2010,04,08,07,58,4.00
2010,04,08,07,59,5.50
2010,04,08,08,00,4.00
2010,04,08,08,01,6.40
2010,04,08,08,02,6.50
2010,04,08,08,03,7.50
2010,04,08,08,04,9.00
2010,04,08,08,05,5.10
2010,04,08,08,06,5.20
2010,04,08,08,07,2.90
2010,04,08,08,08,1.90
2010,04,08,08,09,6.20
2010,04,08,08,10,6.50
2010,04,08,08,11,9.00
2010,04,08,08,12,7.80
2010,04,08,08,13,3.90
2010,04,08,08,14,7.50
2010,04,08,08,15,9.20
2010,04,08,08,16,9.40
2010,04,08,08,17,6.00
2010,04,08,08,18,10.40
2010,04,08,08,19,12.20
2010,04,08,08,20,11.20
2010,04,08,08,21,8.70
2010,04,08,08,22,7.60
2010,04,08,08,23,7.10
2010,04,08,08,24,6.60
2010,04,08,08,25,6.00
2010,04,08,08,26,6.00
2010,04,08,08,27,5.70
2010,04,08,08,28,3.10
2010,04,08,08,29,4.70
2010,04,08,08,30,5.70
2010,04,08,08,31,4.70
2010,04,08,08,32,1.60
2010,04,08,08,33,2.00
2010,04,08,08,34,5.00
2010,04,08,08,35,5.40
2010,04,08,08,36,7.30
2010,04,08,08,37,6.80
2010,04,08,08,38,4.70
2010,04,08,08,39,5.80
2010,04,08,08,40,8.60
2010,04,08,08,41,7.70
2010,04,08,08,42,7.80
2010,04,08,08,43,5.50
2010,04,08,08,44,8.60
2010,04,08,08,45,7.90
2010,04,08,08,46,9.30
2010,04,08,08,47,8.60
2010,04,08,08,48,8.60
2010,04,08,08,49,10.00
2010,04,08,08,50,9.90
2010,04,08,08,51,11.40
2010,04,08,08,52,10.30
2010,04,08,08,53,10.10
2010,04,08,08,54,9.70
2010,04,08,08,55,6.70
2010,04,08,08,56,9.00
2010,04,08,08,57,10.40
2010,04,08,08,58,10.60
2010,04,08,08,59,5.40
2010,04,08,09,00,8.20
2010,04,08,09,01,7.20
2010,04,08,09,02,13.20
2010,04,08,09,03,5.80
2010,04,08,09,04,7.10
2010,04,08,09,05,11.10
2010,04,08,09,06,4.60
2010,04,08,09,07,6.50
2010,04,08,09,08,7.50
2010,04,08,09,09,7.00
2010,04,08,09,10,5.50
2010,04,08,09,11,7.70
2010,04,08,09,12,7.70
2010,04,08,09,13,9.00
2010,04,08,09,14,4.70
2010,04,08,09,15,9.40
2010,04,08,09,16,10.00
2010,04,08,09,17,10.60
2010,04,08,09,18,10.90
2010,04,08,09,19,10.00
2010,04,08,09,20,8.30
2010,04,08,09,21,12.60
2010,04,08,09,22,11.20
2010,04,08,09,23,8.90
2010,04,08,09,24,14.50
2010,04,08,09,25,10.90
2010,04,08,09,26,8.00
2010,04,08,09,27,11.40
2010,04,08,09,28,13.60
2010,04,08,09,29,11.60
2010,04,08,09,30,13.00
2010,04,08,09,31,15.00
2010,04,08,09,32,12.70
2010,04,08,09,33,12.80
2010,04,08,09,34,12.10
2010,04,08,09,35,13.60
2010,04,08,09,36,9.70
2010,04,08,09,37,12.10
2010,04,08,09,38,17.20
2010,04,08,09,39,14.70
2010,04,08,09,40,10.90
2010,04,08,09,41,13.00
2010,04,08,09,42,14.60
2010,04,08,09,43,11.70
2010,04,08,09,44,17.90
2010,04,08,09,45,10.70
2010,04,08,09,46,18.30
2010,04,08,09,47,14.70
2010,04,08,09,48,14.00
2010,04,08,09,49,16.00
2010,04,08,09,50,11.90
2010,04,08,09,51,12.80
2010,04,08,09,52,9.30
2010,04,08,09,53,5.60
2010,04,08,09,54,10.50
2010,04,08,09,55,4.10
2010,04,08,09,56,12.10
2010,04,08,09,57,7.10
2010,04,08,09,58,12.20
2010,04,08,09,59,13.00
2010,04,08,10,00,10.00
2010,04,08,10,01,9.40
2010,04,08,10,02,9.80
2010,04,08,10,03,13.00
2010,04,08,10,04,9.80
2010,04,08,10,05,10.50
2010,04,08,10,06,6.40
2010,04,08,10,07,15.50
2010,04,08,10,08,17.80
2010,04,08,10,09,14.60
2010,04,08,10,10,7.30
2010,04,08,10,11,13.70
2010,04,08,10,12,14.00
2010,04,08,10,13,14.60
2010,04,08,10,14,15.00
2010,04,08,10,15,14.70
2010,04,08,10,16,9.20
2010,04,08,10,17,9.50
2010,04,08,10,18,11.00
2010,04,08,10,19,17.10
2010,04,08,10,20,13.20
2010,04,08,10,21,11.20
2010,04,08,10,22,9.30
2010,04,08,10,23,9.40
2010,04,08,10,24,9.10
2010,04,08,10,25,6.40
2010,04,08,10,26,8.90
2010,04,08,10,27,10.30
2010,04,08,10,28,10.30
2010,04,08,10,29,6.80
2010,04,08,10,30,7.50
2010,04,08,10,31,1.80
2010,04,08,10,32,4.20
2010,04,08,10,33,15.10
2010,04,08,10,34,3.20
2010,04,08,10,35,8.60
2010,04,08,10,36,11.90
2010,04,08,10,37,7.20
2010,04,08,10,38,15.70
2010,04,08,10,39,17.90
2010,04,08,10,40,8.60
2010,04,08,10,41,6.90
2010,04,08,10,42,7.40
2010,04,08,10,43,9.00
2010,04,08,10,44,10.90
2010,04,08,10,45,11.30
2010,04,08,10,46,5.00
2010,04,08,10,47,8.00
2010,04,08,10,48,18.20
2010,04,08,10,49,11.50
2010,04,08,10,50,11.30
2010,04,08,10,51,18.80
2010,04,08,10,52,12.80
2010,04,08,10,53,15.90
2010,04,08,10,54,16.00
2010,04,08,10,55,17.50
2010,04,08,10,56,17.10
2010,04,08,10,57,16.10
2010,04,08,10,58,12.70
2010,04,08,10,59,8.90
2010,04,08,11,00,14.60
2010,04,08,11,01,12.80
2010,04,08,11,02,2.70
2010,04,08,11,03,4.50
2010,04,08,11,04,2.90
2010,04,08,11,05,3.40
2010,04,08,11,06,4.80
2010,04,08,11,07,4.80
2010,04,08,11,08,6.90
2010,04,08,11,09,4.00
2010,04,08,11,10,2.00
2010,04,08,11,11,5.60
2010,04,08,11,12,2.80
2010,04,08,11,13,7.50
2010,04,08,11,14,2.50
2010,04,08,11,15,2.50
2010,04,08,11,16,9.10
2010,04,08,11,17,18.40
2010,04,08,11,18,12.30
2010,04,08,11,19,4.40
2010,04,08,11,20,4.40
2010,04,08,11,21,3.10
2010,04,08,11,22,6.00
2010,04,08,11,23,7.80
2010,04,08,11,24,3.30
2010,04,08,11,25,7.70
2010,04,08,11,26,10.30
2010,04,08,11,27,5.20
2010,04,08,11,28,2.80
2010,04,08,11,29,3.10
2010,04,08,11,30,2.90
2010,04,08,11,31,3.90
2010,04,08,11,32,7.90
2010,04,08,11,33,13.60
2010,04,08,11,34,8.50
2010,04,08,11,35,20.10
2010,04,08,11,36,9.00
2010,04,08,11,37,7.80
2010,04,08,11,38,5.70
2010,04,08,11,39,13.50
2010,04,08,11,40,5.00
2010,04,08,11,41,3.80
2010,04,08,11,42,4.30
2010,04,08,11,43,5.80
2010,04,08,11,44,5.60
2010,04,08,11,45,10.00
2010,04,08,11,46,5.40
2010,04,08,11,47,2.50
2010,04,08,11,48,2.50
2010,04,08,11,49,2.40
2010,04,08,11,50,1.90
2010,04,08,11,51,2.60
2010,04,08,11,52,3.10
2010,04,08,11,53,7.50
2010,04,08,11,54,1.50
2010,04,08,11,55,9.10
2010,04,08,11,56,2.70
2010,04,08,11,57,6.30
2010,04,08,11,58,4.90
2010,04,08,11,59,5.00
2010,04,08,12,00,6.40
2010,04,08,12,01,7.60
2010,04,08,12,02,4.00
2010,04,08,12,03,8.40
2010,04,08,12,04,4.00
2010,04,08,12,05,6.80
2010,04,08,12,06,6.10
2010,04,08,12,07,2.70
2010,04,08,12,08,6.50
2010,04,08,12,09,11.30
2010,04,08,12,10,11.30
2010,04,08,12,11,15.30
2010,04,08,12,12,11.90
2010,04,08,12,13,10.00
2010,04,08,12,14,1.80
2010,04,08,12,15,6.40
2010,04,08,12,16,8.90
2010,04,08,12,17,1.80
2010,04,08,12,18,6.00
2010,04,08,12,19,7.00
2010,04,08,12,20,5.90
2010,04,08,12,21,7.10
2010,04,08,12,22,10.10
2010,04,08,12,23,8.40
2010,04,08,12,24,4.60
2010,04,08,12,25,6.00
2010,04,08,12,26,7.20
2010,04,08,12,27,19.00
2010,04,08,12,28,16.00
2010,04,08,12,29,3.20
2010,04,08,12,30,5.00
2010,04,08,12,31,2.20
2010,04,08,12,32,5.70
2010,04,08,12,33,8.70
2010,04,08,12,34,9.00
2010,04,08,12,35,10.10
2010,04,08,12,36,9.40
2010,04,08,12,37,4.50
2010,04,08,12,38,5.30
2010,04,08,12,39,10.50
2010,04,08,12,40,17.10
2010,04,08,12,41,14.70
2010,04,08,12,42,12.10
2010,04,08,12,43,4.70
2010,04,08,12,44,6.30
2010,04,08,12,45,10.10
2010,04,08,12,46,8.80
2010,04,08,12,47,5.60
2010,04,08,12,48,8.60
2010,04,08,12,49,12.50
2010,04,08,12,50,9.30
2010,04,08,12,51,4.10
2010,04,08,12,52,9.30
2010,04,08,12,53,12.70
2010,04,08,12,54,16.60
2010,04,08,12,55,13.40
2010,04,08,12,56,10.30
2010,04,08,12,57,7.90
2010,04,08,12,58,10.60
2010,04,08,12,59,12.70
2010,04,08,13,00,7.20
2010,04,08,13,01,6.00
2010,04,08,13,02,12.10
2010,04,08,13,03,6.20
2010,04,08,13,04,7.80
2010,04,08,13,05,6.50
2010,04,08,13,06,5.60
2010,04,08,13,07,3.80
2010,04,08,13,08,3.90
2010,04,08,13,09,7.40
2010,04,08,13,10,9.70
2010,04,08,13,11,11.30
2010,04,08,13,12,12.80
2010,04,08,13,13,8.60
2010,04,08,13,14,9.50
2010,04,08,13,15,12.00
2010,04,08,13,16,11.70
2010,04,08,13,17,13.60
2010,04,08,13,18,17.50
2010,04,08,13,19,16.30
2010,04,08,13,20,18.00
2010,04,08,13,21,16.20
2010,04,08,13,22,13.90
2010,04,08,13,23,13.80
2010,04,08,13,24,15.20
2010,04,08,13,25,6.80
2010,04,08,13,26,9.70
2010,04,08,13,27,17.50
2010,04,08,13,28,14.10
2010,04,08,13,29,15.20
2010,04,08,13,30,15.00
2010,04,08,13,31,18.50
2010,04,08,13,32,15.60
2010,04,08,13,33,13.10
2010,04,08,13,34,16.30
2010,04,08,13,35,15.00
2010,04,08,13,36,13.80
2010,04,08,13,37,11.00
2010,04,08,13,38,12.90
2010,04,08,13,39,13.60
2010,04,08,13,40,12.30
2010,04,08,13,41,11.20
2010,04,08,13,42,10.50
2010,04,08,13,43,15.80
2010,04,08,13,44,14.10
2010,04,08,13,45,12.10
2010,04,08,13,46,21.20
2010,04,08,13,47,21.40
2010,04,08,13,48,19.90
2010,04,08,13,49,14.40
2010,04,08,13,50,13.80
2010,04,08,13,51,12.40
2010,04,08,13,52,12.30
2010,04,08,13,53,8.80
2010,04,08,13,54,13.80
2010,04,08,13,55,12.80
2010,04,08,13,56,14.80
2010,04,08,13,57,11.70
2010,04,08,13,58,9.60
2010,04,08,13,59,9.90
2010,04,08,14,00,7.90
2010,04,08,14,01,7.50
2010,04,08,14,02,8.50
2010,04,08,14,03,10.00
2010,04,08,14,04,8.70
2010,04,08,14,05,6.10
2010,04,08,14,06,7.60
2010,04,08,14,07,6.40
2010,04,08,14,08,11.10
2010,04,08,14,09,13.10
2010,04,08,14,10,16.10
2010,04,08,14,11,16.90
2010,04,08,14,12,17.80
2010,04,08,14,13,17.80
2010,04,08,14,14,15.20
2010,04,08,14,15,12.50
2010,04,08,14,16,11.80
2010,04,08,14,17,13.60
2010,04,08,14,18,16.20
2010,04,08,14,19,14.80
2010,04,08,14,20,15.00
2010,04,08,14,21,15.90
2010,04,08,14,22,20.30
2010,04,08,14,23,8.60
2010,04,08,14,24,14.50
2010,04,08,14,25,14.90
2010,04,08,14,26,10.80
2010,04,08,14,27,13.50
2010,04,08,14,28,11.30
2010,04,08,14,29,10.70
2010,04,08,14,30,10.10
2010,04,08,14,31,14.90
2010,04,08,14,32,11.60
2010,04,08,14,33,7.20
2010,04,08,14,34,6.60
2010,04,08,14,35,10.40
2010,04,08,14,36,9.10
2010,04,08,14,37,12.70
2010,04,08,14,38,14.20
2010,04,08,14,39,12.80
2010,04,08,14,40,15.70
2010,04,08,14,41,20.60
2010,04,08,14,42,19.20
2010,04,08,14,43,21.30
2010,04,08,14,44,20.40
2010,04,08,14,45,12.40
2010,04,08,14,46,19.20
2010,04,08,14,47,20.60
2010,04,08,14,48,14.70
2010,04,08,14,49,23.20
2010,04,08,14,50,16.70
2010,04,08,14,51,26.00
2010,04,08,14,52,26.20
2010,04,08,14,53,28.90
2010,04,08,14,54,31.00
2010,04,08,14,55,25.40
2010,04,08,14,56,19.80
2010,04,08,14,57,22.40
2010,04,08,14,58,20.60
2010,04,08,14,59,19.70
2010,04,08,15,00,23.30
2010,04,08,15,01,16.10
2010,04,08,15,02,13.80
2010,04,08,15,03,17.80
2010,04,08,15,04,15.60
2010,04,08,15,05,12.60
2010,04,08,15,06,16.20
2010,04,08,15,07,12.60
2010,04,08,15,08,17.80
2010,04,08,15,09,15.70
2010,04,08,15,10,25.20
2010,04,08,15,11,18.80
2010,04,08,15,12,15.70
2010,04,08,15,13,15.00
2010,04,08,15,14,23.60
2010,04,08,15,15,21.50
2010,04,08,15,16,21.00
2010,04,08,15,17,20.20
2010,04,08,15,18,14.10
2010,04,08,15,19,19.70
2010,04,08,15,20,18.00
2010,04,08,15,21,21.10
2010,04,08,15,22,19.10
2010,04,08,15,23,20.90
2010,04,08,15,24,25.00
2010,04,08,15,25,21.90
2010,04,08,15,26,20.90
2010,04,08,15,27,25.50
2010,04,08,15,28,22.70
2010,04,08,15,29,23.30
2010,04,08,15,30,20.90
2010,04,08,15,31,21.50
2010,04,08,15,32,22.00
2010,04,08,15,33,23.20
2010,04,08,15,34,24.70
2010,04,08,15,35,23.20
2010,04,08,15,36,20.60
2010,04,08,15,37,17.10
2010,04,08,15,38,14.70
2010,04,08,15,39,13.30
2010,04,08,15,40,12.50
2010,04,08,15,41,16.60
2010,04,08,15,42,17.40
2010,04,08,15,43,16.00
2010,04,08,15,44,16.70
2010,04,08,15,45,21.90
2010,04,08,15,46,18.70
2010,04,08,15,47,24.00
2010,04,08,15,48,19.50
2010,04,08,15,49,17.30
2010,04,08,15,50,18.30
2010,04,08,15,51,18.10
2010,04,08,15,52,17.50
2010,04,08,15,53,20.40
2010,04,08,15,54,20.20
2010,04,08,15,55,20.50
2010,04,08,15,56,20.80
2010,04,08,15,57,22.00
2010,04,08,15,58,16.70
2010,04,08,15,59,19.50
2010,04,08,16,00,18.30
2010,04,08,16,01,15.80
2010,04,08,16,02,21.60
2010,04,08,16,03,20.20
2010,04,08,16,04,20.20
2010,04,08,16,05,21.70
2010,04,08,16,06,21.20
2010,04,08,16,07,20.60
2010,04,08,16,08,17.30
2010,04,08,16,09,18.80
2010,04,08,16,10,21.30
2010,04,08,16,11,18.50
2010,04,08,16,12,21.00
2010,04,08,16,13,22.10
2010,04,08,16,14,16.10
2010,04,08,16,15,17.90
2010,04,08,16,16,17.90
2010,04,08,16,17,14.40
2010,04,08,16,18,22.70
2010,04,08,16,19,19.70
2010,04,08,16,20,25.10
2010,04,08,16,21,21.70
2010,04,08,16,22,17.30
2010,04,08,16,23,19.60
2010,04,08,16,24,20.00
2010,04,08,16,25,17.20
2010,04,08,16,26,16.70
2010,04,08,16,27,18.90
2010,04,08,16,28,21.20
2010,04,08,16,29,21.80
2010,04,08,16,30,18.30
2010,04,08,16,31,13.90
2010,04,08,16,32,16.60
2010,04,08,16,33,13.60
2010,04,08,16,34,11.30
2010,04,08,16,35,11.60
2010,04,08,16,36,13.30
2010,04,08,16,37,12.60
2010,04,08,16,38,14.00
2010,04,08,16,39,7.60
2010,04,08,16,40,4.70
2010,04,08,16,41,17.50
2010,04,08,16,42,8.60
2010,04,08,16,43,10.10
2010,04,08,16,44,15.30
2010,04,08,16,45,17.50
2010,04,08,16,46,17.90
2010,04,08,16,47,13.00
2010,04,08,16,48,9.30
2010,04,08,16,49,10.40
2010,04,08,16,50,12.40
2010,04,08,16,51,16.80
2010,04,08,16,52,17.40
2010,04,08,16,53,11.90
2010,04,08,16,54,13.30
2010,04,08,16,55,10.20
2010,04,08,16,56,10.90
2010,04,08,16,57,9.00
2010,04,08,16,58,9.20
2010,04,08,16,59,11.20
2010,04,08,17,00,15.40
2010,04,08,17,01,7.50
2010,04,08,17,02,2.50
2010,04,08,17,03,6.00
2010,04,08,17,04,6.30
2010,04,08,17,05,5.90
2010,04,08,17,06,3.60
2010,04,08,17,07,0.90
2010,04,08,17,08,2.90
2010,04,08,17,09,7.60
2010,04,08,17,10,4.20
2010,04,08,17,11,7.00
2010,04,08,17,12,6.70
2010,04,08,17,13,15.00
2010,04,08,17,14,6.00
2010,04,08,17,15,8.80
2010,04,08,17,16,5.20
2010,04,08,17,17,5.20
2010,04,08,17,18,0.90
2010,04,08,17,19,1.80
2010,04,08,17,20,7.20
2010,04,08,17,21,2.60
2010,04,08,17,22,2.20
2010,04,08,17,23,2.30
2010,04,08,17,24,3.20
2010,04,08,17,25,3.60
2010,04,08,17,26,3.90
2010,04,08,17,27,3.30
2010,04,08,17,28,4.50
2010,04,08,17,29,3.40
2010,04,08,17,30,3.10
2010,04,08,17,31,7.10
2010,04,08,17,32,9.80
2010,04,08,17,33,9.70
2010,04,08,17,34,5.60
2010,04,08,17,35,7.90
2010,04,08,17,36,13.90
2010,04,08,17,37,9.30
2010,04,08,17,38,13.40
2010,04,08,17,39,7.70
2010,04,08,17,40,9.70
2010,04,08,17,41,8.50
2010,04,08,17,42,6.70
2010,04,08,17,43,9.20
2010,04,08,17,44,6.80
2010,04,08,17,45,5.50
2010,04,08,17,46,6.50
2010,04,08,17,47,9.90
2010,04,08,17,48,10.80
2010,04,08,17,49,12.60
2010,04,08,17,50,12.00
2010,04,08,17,51,16.70